GFSSE_850_temp_000.txt.gz
Temp
17 17 17 17 16 16 16 16 16 16 15 15 15 15 15 15 15 14 14 15 15 15 15 15 15 16 16 16 16 16 16 16 16 16 16 16 16 16 16 16 15 14 15
17 17 17 16 16 16 16 15 16 16 15 15 15 15 14 14 14 14 14 14 14 14 15 15 15 15 16 16 16 16 15 15 15 15 16 16 16 16 16 16 16 15 16
17 17 17 16 16 16 15 15 15 15 15 15 14 14 14 14 14 14 14 14 14 14 14 15 15 16 16 16 16 15 15 14 14 15 15 15 14 15 15 15 15 16 15
16 16 17 16 16 16 15 15 15 15 15 15 15 15 15 15 15 14 15 15 15 15 15 15 15 15 15 14 14 14 14 14 14 14 15 15 13 13 14 15 15 15 16
17 17 17 17 16 16 16 15 15 15 15 15 15 15 15 15 15 15 15 14 14 15 15 15 15 14 14 14 13 13 14 14 14 14 14 14 14 14 13 13 14 15 15
18 18 17 17 17 16 16 15 15 15 15 15 15 14 15 15 14 14 14 14 14 15 14 14 14 14 14 13 13 14 14 14 14 14 14 13 13 12 12 13 14 15 15
18 18 18 18 17 17 16 16 16 16 15 15 15 15 15 14 14 14 14 14 14 14 14 14 14 14 14 14 14 14 14 14 14 14 13 12 12 12 12 12 14 14 14
17 18 18 18 18 17 17 16 16 15 15 15 15 14 14 14 14 14 14 14 14 14 14 14 14 14 14 14 14 14 14 14 14 13 13 13 12 13 12 12 13 13 13
17 18 18 17 17 17 16 16 15 15 15 15 15 14 14 14 14 14 14 14 14 14 14 14 14 14 14 14 14 14 14 14 14 13 12 13 13 12 12 12 12 13 13
17 17 16 16 17 16 16 16 16 15 15 15 14 14 14 13 13 13 13 13 13 13 13 13 13 14 14 14 13 13 13 13 12 13 12 13 13 13 12 12 13 12 12
18 17 17 16 15 15 15 15 15 15 14 14 13 14 13 13 12 13 13 13 13 13 13 13 12 12 12 12 12 12 13 12 11 12 12 12 12 12 12 12 12 12 12
18 17 17 16 15 16 16 15 15 14 14 14 13 13 13 13 13 13 13 13 12 12 12 11 11 11 11 12 11 11 11 11 12 12 11 12 12 13 13 13 12 12 12
18 18 17 16 16 15 16 15 15 15 14 14 13 14 13 13 13 13 13 12 12 12 12 12 11 11 11 11 12 12 11 11 12 11 11 12 12 13 13 13 13 12 12
19 18 17 16 17 16 15 16 15 15 15 14 14 13 13 13 13 13 13 13 12 12 12 12 12 11 11 11 11 12 12 12 12 11 11 11 12 12 13 13 13 13 13
19 19 17 17 17 16 17 15 15 15 15 14 14 13 14 14 14 13 13 12 12 12 12 12 12 11 11 11 11 11 11 11 11 12 11 11 11 11 12 12 12 12 13
20 19 18 16 16 16 15 15 14 14 14 14 14 14 14 14 14 13 14 13 12 12 12 12 12 12 11 11 11 11 11 11 11 10 10 10 10 11 11 12 12 12 12
20 20 18 15 16 16 15 15 15 14 14 14 14 13 13 13 13 13 13 12 12 12 12 12 12 12 12 12 11 11 11 11 11 11 11 10 10 10 10 11 11 11 12
20 20 16 15 16 15 15 15 15 14 14 14 14 14 13 13 12 12 12 12 12 12 12 12 12 12 12 12 12 12 12 11 11 11 10 10 10 10 10 10 10 11 11
20 20 19 17 15 15 15 15 14 14 14 14 14 14 13 13 12 12 12 12 12 11 11 11 11 12 12 12 12 12 12 12 12 11 11 11 10 10 9 9 9 10 10
20 19 19 17 16 15 15 15 14 14 14 14 13 13 12 12 11 11 11 11 11 11 11 11 11 11 11 11 11 11 11 11 11 11 11 11 11 10 10 9 9 9 9
18 18 18 16 16 15 15 15 14 14 13 13 12 12 11 11 11 11 10 10 10 10 10 10 10 10 10 10 10 10 10 10 11 11 11 11 11 11 10 10 9 9 9
17 16 16 15 14 14 14 13 13 12 12 12 11 11 10 10 10 9 9 9 9 9 9 8 9 9 9 9 9 9 9 9 10 10 11 11 11 11 10 10 9 9 8
15 15 15 14 13 13 12 12 11 12 12 11 12 11 10 10 9 8 8 8 8 8 7 7 7 8 8 8 8 8 8 8 8 8 9 9 10 9 9 7 7 8 8
14 14 13 12 12 12 12 13 12 11 10 10 11 9 9 8 8 8 8 7 7 6 6 6 6 6 6 6 6 5 6 5 3 5 6 7 8 8 8 8 8 6 8
12 12 12 12 11 12 11 11 9 9 9 9 9 8 8 7 7 7 7 6 6 6 6 5 5 5 4 4 4 3 4 4 4 1 3 4 5 6 6 6 5 5 4
12 11 11 12 11 11 10 9 9 9 8 8 7 7 7 7 6 5 5 5 4 4 4 4 3 3 3 3 3 2 2 1 -0 -1 -1 1 0 3 4 4 4 3 3

GFSSE_850_temp_003.txt.gz
Temp
17 17 17 17 16 16 16 16 16 16 15 15 15 15 15 15 14 14 15 15 15 15 15 15 15 15 15 15 16 16 16 16 16 15 14 15 15 14 15 15 16 16 17
17 16 16 16 16 16 16 16 16 15 15 15 15 15 15 14 14 14 14 15 15 15 15 15 16 16 16 16 16 16 15 14 15 15 15 15 14 14 14 14 15 15 16
17 16 16 16 16 16 16 15 15 15 15 15 15 15 15 14 14 14 14 15 15 15 15 16 16 16 16 16 15 15 15 14 14 14 14 14 14 14 13 14 14 14 15
16 16 16 16 16 16 16 16 16 15 15 15 15 15 15 15 14 15 15 15 15 15 16 16 16 15 15 15 14 14 14 14 14 13 13 13 13 13 14 14 13 14 14
17 17 17 16 16 16 16 15 15 15 15 15 15 15 15 15 15 15 14 14 14 15 15 15 15 15 14 14 14 14 14 14 14 13 13 13 14 14 14 14 13 13 15
17 17 17 17 17 16 16 16 16 15 15 15 15 15 15 15 15 14 14 14 14 15 15 15 15 15 15 15 15 15 14 14 14 13 13 13 13 14 13 14 14 14 13
18 18 18 18 17 17 16 16 16 15 15 15 15 15 15 15 14 14 14 14 14 14 14 14 15 15 14 15 15 15 15 15 15 13 12 13 13 14 15 14 14 13 12
18 18 18 18 17 17 16 16 16 16 16 16 15 15 15 14 14 14 14 14 14 14 14 14 14 14 14 15 15 15 14 14 15 13 14 13 13 14 13 13 13 13 12
18 18 18 17 17 17 16 16 16 16 16 16 15 15 14 14 14 14 14 14 14 14 14 14 14 14 14 14 14 14 14 14 13 12 13 13 13 13 13 13 13 12 13
18 18 17 17 16 16 16 16 17 16 16 16 15 15 14 14 14 14 13 13 13 13 13 13 13 13 13 13 13 13 12 12 11 12 12 12 12 13 12 12 13 13 13
17 17 17 17 16 16 16 17 16 16 16 15 15 15 14 14 14 14 13 13 13 13 12 13 13 13 13 12 12 13 13 12 12 11 11 11 12 12 13 13 13 13 13
17 17 16 16 17 16 16 15 15 15 15 14 14 14 14 14 13 13 12 13 12 12 12 12 12 12 12 12 12 12 13 13 12 11 11 12 11 12 13 13 12 13 13
18 17 17 17 16 15 16 15 15 15 15 14 14 13 13 13 12 13 13 13 13 12 12 12 12 12 12 11 12 12 12 12 12 11 11 11 12 12 13 13 13 13 12
18 17 17 18 18 16 16 15 15 14 14 14 14 14 14 13 13 14 13 13 13 12 12 12 12 12 12 11 11 11 12 12 12 12 11 11 11 12 12 13 13 13 13
18 18 18 18 18 17 16 15 15 15 14 14 14 13 14 14 14 13 14 14 13 13 12 12 12 12 12 12 12 11 12 12 12 12 12 12 11 11 11 12 12 13 13
19 18 18 17 17 17 16 16 15 15 14 14 14 14 14 14 14 13 14 14 13 12 12 12 12 12 12 12 12 12 12 12 12 12 12 12 12 12 11 11 11 12 12
19 18 17 15 14 15 15 16 15 14 15 14 14 14 14 13 13 13 13 12 12 12 12 12 12 12 12 12 12 12 12 12 12 12 12 11 11 11 11 11 11 11 11
20 18 18 17 15 15 15 15 15 14 14 14 14 13 13 12 12 12 12 12 12 12 12 12 12 11 11 12 12 12 12 12 12 12 12 11 11 11 11 11 11 11 11
20 20 18 16 16 14 15 15 14 14 14 14 14 13 13 12 12 12 12 11 11 11 11 11 11 11 11 11 11 12 11 11 11 11 11 12 12 11 11 11 11 10 11
19 19 17 16 15 15 15 14 14 14 14 13 13 13 12 12 12 12 11 10 10 10 10 10 10 10 10 10 10 10 10 10 11 11 11 11 11 11 11 12 11 11 10
18 16 15 15 15 15 15 15 14 14 13 13 12 13 13 12 12 11 11 10 9 9 9 9 10 10 9 9 9 9 9 10 10 10 10 11 11 10 10 10 11 10 10
16 16 15 15 16 15 14 14 14 13 13 13 13 12 11 11 10 10 9 9 9 9 9 9 8 8 8 8 8 8 8 8 9 9 9 10 9 9 9 9 9 9 9
16 15 15 15 14 14 13 13 13 13 12 11 11 10 9 9 9 8 8 8 8 8 8 8 7 7 7 7 7 6 6 6 6 7 8 8 8 7 7 6 6 6 6
13 14 14 14 13 13 13 12 11 11 10 9 9 9 8 8 8 8 7 7 7 7 7 6 6 6 6 5 5 5 5 4 2 3 4 5 5 5 5 5 5 4 5
13 13 13 12 12 12 11 11 11 9 9 9 8 7 7 7 7 7 7 7 6 6 6 5 5 4 4 4 4 4 3 3 3 2 1 2 3 4 4 5 4 4 4
13 13 12 12 11 11 11 10 10 9 8 7 7 7 7 6 6 7 5 4 4 4 3 3 3 3 3 3 2 2 2 -0 -0 -0 -0 1 -0 2 3 3 3 2 3

GFSSE_850_temp_006.txt.gz
Temp
16 17 16 17 17 17 16 16 15 16 15 15 15 15 15 15 15 15 15 15 15 15 15 16 16 16 16 16 15 15 15 15 14 14 14 14 14 15 15 15 15 15 15
17 17 16 16 17 16 16 16 16 15 15 15 15 15 15 15 15 15 15 15 15 15 15 16 16 16 16 15 15 15 15 15 14 13 13 14 14 14 15 15 15 15 15
17 16 16 16 16 16 16 16 16 15 15 15 15 15 15 15 15 15 15 15 15 15 16 16 16 16 15 15 14 14 14 14 14 14 14 14 14 14 14 14 15 15 15
17 16 16 16 16 16 16 16 16 15 15 15 15 16 15 15 15 15 15 15 15 15 15 15 15 15 15 15 14 14 14 14 14 14 14 14 14 13 13 13 13 15 15
16 16 16 16 16 16 16 16 16 16 15 16 16 16 15 15 15 15 15 15 15 15 15 15 15 15 15 15 15 15 15 14 14 14 14 13 14 14 14 14 14 13 14
16 16 16 16 16 16 16 16 16 16 16 16 16 15 15 15 15 15 15 15 15 15 15 15 15 15 15 15 15 15 15 15 14 14 14 14 14 14 14 13 14 14 14
16 16 16 17 17 16 16 16 16 16 16 16 16 15 15 15 15 15 15 14 14 14 14 14 14 14 14 15 14 14 14 14 14 14 14 14 14 13 14 13 13 13 14
17 17 17 17 16 16 16 16 16 16 16 15 15 15 15 15 15 15 15 14 14 14 14 14 13 13 14 14 14 14 13 14 14 14 13 13 13 13 13 13 14 13 14
18 17 17 17 16 16 16 16 16 16 16 16 16 15 15 15 15 14 14 14 13 13 13 13 13 13 13 13 13 13 13 13 13 13 13 13 12 12 12 13 13 13 13
17 17 17 17 17 17 17 16 16 16 16 16 16 15 14 14 14 14 14 13 13 13 13 12 12 12 12 12 12 13 12 12 12 12 12 12 12 12 12 12 12 13 13
17 17 17 17 16 16 16 17 16 16 16 15 15 15 14 14 14 14 14 13 13 13 13 12 12 12 12 12 12 12 12 12 12 12 12 12 11 11 12 12 12 12 12
17 17 17 17 17 16 16 16 15 15 15 15 15 15 15 14 14 13 14 13 13 13 12 12 12 12 12 12 12 12 12 12 12 13 13 12 11 11 11 12 12 12 12
17 17 17 17 17 16 16 16 15 15 14 14 14 14 14 14 14 14 14 14 13 13 13 12 12 12 12 12 11 11 11 11 12 12 12 12 12 12 12 12 13 13 12
17 17 17 17 17 16 16 15 15 14 14 14 14 13 14 13 13 14 13 13 13 13 13 13 13 13 12 12 12 12 12 12 11 12 12 12 12 12 12 12 12 12 13
17 17 17 17 16 16 15 15 15 14 14 14 14 13 14 14 14 13 12 12 12 12 12 12 12 12 12 12 12 12 12 12 12 12 12 12 12 12 12 12 12 12 12
18 17 17 17 17 16 15 15 15 14 14 14 14 14 14 13 13 12 12 12 12 12 12 12 12 12 12 12 11 12 12 12 12 11 11 11 11 11 11 11 12 12 12
18 18 17 18 17 17 16 15 15 14 14 14 14 14 13 13 12 12 12 12 12 12 12 12 12 12 11 11 11 11 11 11 11 11 11 11 11 11 11 11 11 11 11
18 18 18 17 17 16 15 15 15 14 14 14 14 13 13 12 12 12 12 12 12 12 12 11 11 11 11 11 11 11 11 11 11 11 11 11 11 11 11 11 11 11 11
19 18 17 17 16 16 15 14 14 14 14 14 13 13 12 12 12 12 12 12 11 11 11 10 10 10 10 10 10 10 10 10 10 10 10 10 10 10 10 10 10 10 10
18 17 17 16 15 15 14 14 14 14 13 13 13 12 13 12 12 12 11 11 10 9 9 9 9 9 9 9 9 9 9 9 9 9 9 9 9 9 10 10 10 10 9
16 15 14 14 14 14 14 14 14 13 12 13 13 12 12 12 11 11 10 9 9 8 8 8 8 8 8 8 8 8 8 8 7 8 8 8 8 8 7 8 8 9 9
14 14 13 14 14 13 13 12 12 12 12 12 12 11 11 11 11 10 8 8 8 8 7 7 7 7 7 7 6 6 6 6 6 6 6 6 7 7 6 6 6 7 8
13 13 13 13 13 13 13 12 12 12 12 12 11 11 10 10 9 8 7 7 7 7 6 6 6 6 5 5 5 4 4 4 3 4 4 4 4 5 4 4 4 5 5
13 13 13 13 13 13 13 13 12 12 11 11 10 9 9 8 7 7 7 7 6 6 5 5 4 4 4 4 3 3 3 3 1 1 1 2 2 3 3 3 3 4 4
13 13 13 13 13 12 12 12 11 11 10 9 9 8 7 6 6 6 6 6 5 5 3 3 3 2 2 2 2 1 1 1 1 0 -0 -0 0 1 2 2 2 2 2
13 13 12 12 12 11 11 10 10 10 9 8 7 6 6 5 4 4 4 4 3 3 2 1 1 1 1 0 -0 -0 -0 -2 -1 -1 -1 -1 -1 -0 1 1 0 -0 0

GFSSE_850_temp_009.txt.gz
Temp
15 16 16 16 17 17 16 16 16 15 15 15 15 15 15 15 15 15 15 15 15 16 16 16 16 16 15 15 15 15 15 15 15 15 15 15 15 15 15 15 15 14 15
16 16 16 16 16 16 16 16 15 15 15 15 15 15 15 15 15 15 15 15 15 15 16 16 16 15 15 15 15 15 15 15 14 14 14 14 14 15 15 14 14 14 14
17 16 16 16 16 16 16 15 15 15 15 15 15 15 15 15 15 15 15 15 15 15 16 16 15 15 15 14 14 14 14 14 14 13 13 14 14 15 14 15 15 14 14
17 16 16 16 16 16 15 15 15 15 15 15 15 15 15 15 15 15 15 15 15 15 15 15 15 15 15 15 15 15 14 14 13 14 13 13 14 14 15 14 14 14 14
16 16 16 16 16 15 15 15 15 15 15 15 15 15 15 15 15 15 15 15 15 15 15 15 15 15 15 15 15 15 14 14 14 13 13 13 13 13 13 14 13 13 14
16 16 16 16 15 15 15 15 15 16 15 15 15 15 15 15 15 15 15 15 15 15 14 14 14 14 14 14 14 14 14 14 14 14 13 13 13 13 13 13 13 13 14
16 15 16 15 16 16 15 16 16 16 16 16 16 16 15 15 15 15 15 15 14 14 14 13 13 13 14 14 13 13 13 14 14 14 13 13 13 12 13 13 13 13 13
16 16 16 16 16 16 16 16 16 16 16 16 16 15 15 15 15 14 14 14 14 13 13 13 13 13 13 13 13 13 13 13 13 13 13 12 12 12 12 12 12 13 13
17 17 16 16 16 16 16 16 16 16 16 16 16 15 15 15 14 14 14 14 14 13 13 13 13 13 13 13 13 13 13 13 13 12 12 12 12 11 12 12 12 12 12
17 17 17 17 16 16 16 16 16 16 16 16 15 14 15 14 14 14 14 14 13 13 13 13 13 13 13 12 12 12 13 13 13 12 12 12 12 11 11 11 12 12 12
17 17 17 17 17 17 16 16 16 16 15 15 15 14 14 14 15 14 14 14 13 13 13 13 12 12 12 12 12 12 12 12 12 13 13 12 12 12 11 11 11 11 12
17 17 17 17 16 16 16 16 16 15 15 15 15 15 15 14 14 14 14 13 13 13 12 13 12 12 12 12 12 11 12 12 12 12 12 12 12 12 12 12 12 12 13
17 17 17 16 16 16 16 16 15 15 15 15 15 15 15 14 14 14 13 13 13 13 13 13 12 12 12 12 11 11 11 11 11 11 12 12 12 12 12 12 12 12 12
17 17 17 16 16 16 15 15 15 15 15 15 15 15 15 14 14 14 13 13 12 12 12 12 12 12 12 12 12 11 11 11 11 11 11 11 11 11 11 11 12 12 12
17 17 17 17 17 16 16 15 15 15 15 14 14 14 14 14 13 13 13 12 12 13 13 13 13 12 12 12 12 12 11 11 11 11 11 11 11 11 11 11 11 11 11
17 17 17 17 17 16 16 15 15 15 14 14 14 14 13 13 13 12 12 12 12 13 13 13 12 12 11 11 11 11 11 11 11 11 11 11 11 11 10 11 11 11 11
17 17 17 17 16 16 15 15 14 14 14 14 14 13 13 13 12 12 12 12 12 12 12 11 11 11 10 10 10 10 10 10 11 10 10 10 10 10 10 11 10 10 11
18 17 16 15 14 14 14 14 14 13 14 14 13 13 13 12 12 12 12 12 12 11 11 11 10 10 10 9 10 9 10 10 10 10 10 10 10 10 10 10 10 10 10
18 16 15 14 15 12 14 14 13 13 13 13 12 12 12 12 12 12 12 11 11 10 10 10 9 9 9 9 9 9 9 9 9 8 9 9 9 9 9 9 10 10 10
17 16 16 14 12 12 13 13 13 13 13 12 12 12 12 12 12 12 11 10 10 9 9 8 8 8 8 7 7 8 8 8 8 8 7 7 7 7 7 7 8 9 9
17 16 16 13 12 13 12 13 13 12 12 12 12 12 11 11 10 11 11 10 9 8 7 7 7 7 7 6 6 6 7 6 6 6 5 5 5 6 6 6 6 6 8
15 15 14 14 12 12 12 12 11 12 12 11 11 10 10 10 10 10 9 8 7 7 7 6 6 6 5 5 4 4 3 4 4 3 3 3 3 3 4 4 4 5 5
14 13 13 13 13 12 12 12 12 12 11 11 11 11 10 9 9 8 7 6 6 6 6 5 5 4 3 3 3 2 1 2 1 1 2 2 2 2 2 2 3 3 3
13 13 13 13 13 12 12 12 12 11 11 11 10 10 9 7 7 6 5 5 4 5 5 4 3 3 2 1 1 1 1 0 -1 -0 -0 0 1 1 1 1 1 1 2
13 13 12 12 12 11 11 11 10 10 10 9 8 7 6 5 5 4 4 4 4 3 3 2 2 2 1 -0 -0 -0 -0 -1 -2 -2 -2 -2 -2 -0 1 0 1 -0 -0
12 12 11 11 11 11 10 10 10 9 8 7 7 6 5 4 4 4 4 4 3 3 2 2 2 0 -0 -1 -1 -1 -2 -3 -3 -3 -3 -3 -3 -2 -2 -1 -0 -1 -1

GFSSE_850_temp_012.txt.gz
Temp
15 16 16 16 16 16 16 16 16 16 15 15 15 15 15 15 15 15 15 15 15 15 16 16 16 15 15 15 15 15 15 15 15 14 14 15 15 15 15 15 15 15 15
16 16 16 16 16 16 16 16 16 15 15 15 15 15 15 15 15 15 15 15 15 15 16 16 15 15 14 14 14 14 14 14 14 14 14 14 14 14 14 14 14 14 14
16 16 15 16 16 16 16 16 15 15 15 15 15 15 15 15 15 15 15 15 15 15 15 15 15 15 15 15 15 14 14 13 13 14 14 14 14 14 13 13 13 14 14
15 15 15 15 15 16 16 16 15 15 15 15 15 15 15 15 15 15 15 15 15 15 15 15 15 14 14 14 14 14 14 13 13 13 13 13 13 13 13 13 13 13 13
15 14 15 15 15 16 16 16 15 15 15 15 15 15 15 15 15 15 15 15 15 15 14 14 14 14 14 14 14 14 14 14 14 13 13 13 13 13 13 13 13 13 12
15 15 15 15 16 16 16 15 16 16 15 15 15 15 15 15 15 15 15 15 14 14 14 13 13 13 14 14 14 14 14 14 14 14 13 13 13 13 13 12 13 13 13
14 15 15 15 16 16 15 16 16 15 15 15 15 15 15 15 15 15 14 14 14 14 14 13 13 13 13 13 13 13 13 13 14 13 13 12 12 12 12 12 12 12 12
15 15 15 15 16 16 16 16 16 15 15 15 15 15 15 15 15 15 14 14 14 14 14 14 13 13 13 13 13 13 13 13 13 13 12 12 12 12 12 12 12 11 11
15 16 16 15 15 15 16 15 15 15 15 15 15 15 14 14 14 14 14 14 14 14 14 13 13 13 13 13 13 13 13 13 13 13 12 12 12 12 12 12 12 12 11
16 16 16 16 16 16 15 15 16 15 15 15 14 14 14 14 14 14 14 14 13 13 13 13 13 12 12 12 12 13 12 12 12 12 12 13 12 12 12 12 12 12 12
16 17 17 16 16 16 16 16 16 16 15 15 15 14 14 14 14 14 14 13 13 13 13 12 12 12 12 12 12 12 12 12 12 12 12 12 12 12 12 12 12 12 12
17 17 16 16 16 16 16 16 16 16 15 15 15 14 14 14 14 14 14 13 13 13 12 12 13 13 12 12 12 12 12 12 12 11 11 11 11 11 11 11 11 12 12
18 17 16 16 16 16 16 16 16 15 15 15 15 14 14 14 14 14 14 13 13 13 13 13 13 13 13 13 13 12 12 12 12 11 11 11 11 11 11 11 11 11 11
17 17 17 17 16 16 15 15 15 15 15 14 14 15 14 14 14 13 13 13 13 13 13 13 13 12 12 12 12 12 11 11 11 11 11 11 11 11 11 11 11 11 11
17 17 17 17 16 16 15 15 15 14 14 14 14 14 14 13 13 13 13 13 12 12 12 12 12 12 11 11 11 11 10 10 10 10 11 11 11 11 11 11 11 11 11
17 17 16 16 15 14 14 14 14 14 13 13 13 13 13 13 13 12 12 12 11 12 11 11 11 11 10 10 10 10 10 10 10 10 10 10 10 10 10 11 11 11 11
17 16 16 15 15 14 14 14 14 13 13 13 13 13 13 12 12 12 11 11 11 11 11 11 10 10 9 9 9 9 9 9 9 9 9 9 9 9 10 10 10 11 10
17 16 16 15 14 14 13 12 13 13 13 13 13 12 12 12 11 11 11 11 11 11 10 10 9 9 9 8 9 8 8 8 8 8 8 8 8 8 8 9 9 10 10
16 16 16 15 14 13 12 12 13 12 11 12 12 11 12 11 11 11 11 11 11 10 9 9 8 8 8 7 7 7 8 8 8 8 7 7 7 7 7 7 7 8 9
16 16 16 15 13 12 12 12 11 11 11 11 11 11 11 11 11 11 11 10 9 9 8 8 8 7 7 7 7 7 7 7 6 6 6 6 5 5 5 5 6 6 7
14 14 15 13 13 11 11 10 10 11 11 11 11 11 11 10 10 10 10 9 9 8 7 7 6 6 6 6 5 6 6 6 5 5 5 4 4 4 4 4 4 4 5
12 12 13 13 12 11 11 11 12 12 11 11 11 11 10 10 10 9 9 8 7 6 5 5 5 5 5 4 3 3 3 3 4 4 4 3 2 2 2 2 2 3 4
14 13 13 12 12 11 12 12 12 11 11 11 10 10 10 9 9 8 7 7 6 5 5 5 5 4 4 3 2 1 1 1 0 1 2 2 1 1 1 0 0 1 1
13 13 12 12 12 12 12 12 11 11 10 10 9 9 8 7 6 6 5 5 5 5 4 3 3 3 2 2 1 -0 -1 -1 -2 -2 -1 -1 -2 -1 -0 -0 -1 0 0
12 12 12 12 12 11 11 11 10 10 9 8 8 7 7 5 5 5 5 4 4 3 2 2 2 2 1 -0 -1 -1 -1 -2 -3 -3 -3 -3 -4 -3 -4 -2 -1 -1 -1
12 12 11 11 11 10 10 10 9 8 7 6 6 5 5 5 4 4 4 4 3 1 1 0 0 -0 -1 -2 -2 -3 -3 -3 -4 -5 -4 -4 -4 -3 -4 -4 -3 -3 -3

GFSSE_850_temp_015.txt.gz
Temp
15 15 15 15 16 16 16 16 16 16 16 15 15 15 15 15 15 15 15 15 15 16 16 15 15 15 15 15 15 15 15 15 15 15 14 14 14 14 14 14 14 14 14
16 15 15 15 16 16 16 16 16 16 15 15 15 15 15 15 15 15 15 15 15 15 15 15 15 15 15 15 15 15 15 15 14 14 14 14 14 13 13 14 14 14 13
16 15 14 15 15 15 16 15 15 15 15 15 16 15 15 15 15 15 15 15 15 15 15 15 15 15 15 15 15 15 14 14 14 14 14 13 13 13 13 13 13 13 13
16 15 14 15 15 15 15 15 15 15 15 16 15 15 15 15 15 15 15 15 15 15 15 15 15 15 15 14 15 14 14 14 14 14 13 13 13 13 13 13 13 13 13
15 15 14 15 15 15 15 15 15 16 16 15 15 15 15 15 15 15 15 14 14 14 14 14 14 14 14 14 14 14 14 14 14 14 14 13 12 12 12 12 12 12 12
15 15 15 15 15 15 15 15 16 16 16 15 15 15 15 15 15 14 14 14 14 14 14 14 14 14 14 14 14 14 14 14 14 14 14 13 13 12 12 12 12 12 12
15 15 15 15 15 15 15 16 16 15 15 15 15 15 15 15 14 14 14 14 14 14 14 14 14 14 14 14 13 13 13 13 13 13 13 13 13 12 13 12 12 12 11
15 14 14 14 14 15 15 15 15 15 15 15 15 15 14 14 14 14 14 14 14 14 14 14 14 14 14 13 13 13 13 13 13 13 13 13 13 13 12 12 12 12 12
14 14 14 14 15 15 15 15 15 15 15 15 15 14 14 14 14 14 14 14 14 13 13 13 13 13 14 14 14 14 14 13 13 12 12 12 12 13 12 12 12 11 12
14 14 15 15 15 15 14 15 15 15 15 15 14 14 15 14 14 14 14 14 14 14 13 13 13 13 13 13 13 13 13 13 13 13 12 12 12 12 12 12 12 12 11
14 15 15 15 15 15 15 15 15 15 14 14 14 14 14 14 14 14 14 14 14 14 14 13 13 13 13 13 12 13 12 12 12 12 12 12 11 11 11 11 11 11 11
16 16 16 16 15 15 15 15 15 14 14 14 14 14 14 14 14 14 13 13 13 13 13 13 13 12 12 12 12 12 12 12 12 12 12 12 11 11 11 11 11 11 11
16 16 16 16 15 15 15 15 14 14 14 14 14 14 14 13 13 13 13 13 13 12 13 12 12 12 12 12 12 12 11 11 11 11 11 11 11 11 11 11 11 11 11
17 17 16 16 15 15 14 14 14 13 14 13 13 13 13 13 13 13 13 13 12 12 12 12 12 12 11 11 11 11 11 11 10 10 10 11 11 11 11 11 11 11 11
17 16 15 15 14 14 14 13 13 13 13 12 12 13 13 13 12 12 12 12 12 12 12 12 11 11 11 11 11 10 10 10 10 10 10 10 10 10 11 11 11 11 11
16 16 15 15 14 14 14 13 13 14 13 13 12 12 12 12 12 12 12 11 11 11 11 11 11 11 10 10 10 9 9 9 9 9 9 9 9 9 10 10 10 10 10
16 15 15 14 14 13 13 13 13 13 13 13 13 12 12 12 12 12 11 11 11 11 11 11 10 10 9 9 9 9 9 8 8 8 8 9 9 9 9 9 9 9 9
16 15 16 15 14 13 13 12 13 12 12 13 13 12 12 11 11 11 11 11 11 11 10 10 9 9 8 8 8 8 8 8 8 7 7 7 8 8 8 8 8 8 9
15 15 15 15 15 13 13 12 11 11 11 11 11 11 11 11 11 11 11 11 11 10 9 9 8 7 7 7 7 7 7 7 7 7 7 7 6 6 6 6 7 7 7
16 15 14 15 15 14 13 12 11 11 11 11 12 11 11 11 11 11 10 10 10 9 8 8 7 6 6 6 6 6 6 6 6 6 5 5 5 5 5 5 5 5 6
15 13 13 13 13 13 12 11 11 11 11 12 11 11 11 11 10 10 9 9 8 7 7 6 6 6 5 5 5 3 4 5 5 5 4 4 4 4 3 3 3 3 4
13 13 13 12 12 12 11 11 12 12 12 11 11 11 10 10 9 9 8 7 6 5 5 5 4 4 4 3 3 2 4 3 2 3 2 2 1 2 1 1 1 1 1
13 13 12 12 11 11 11 12 11 11 11 10 10 10 9 9 7 6 5 5 5 5 4 3 3 2 1 2 2 0 2 2 0 1 0 -0 -1 -1 -2 -2 -1 -1 -0
12 12 12 11 11 11 11 11 11 10 10 10 9 8 7 6 5 5 5 5 5 4 3 2 2 2 1 -0 0 -1 -1 -2 -1 -1 -0 -1 -2 -2 -3 -3 -3 -2 -2
12 12 11 11 11 11 10 10 10 9 8 7 6 6 5 5 5 4 4 4 4 3 2 2 1 1 0 -1 -1 -2 -3 -3 -3 -3 -3 -2 -3 -3 -3 -4 -4 -4 -3
11 11 11 11 11 10 10 9 9 8 7 6 5 5 5 5 4 4 3 3 3 2 2 1 0 -0 -1 -1 -2 -3 -3 -4 -4 -4 -4 -3 -4 -3 -4 -4 -5 -4 -4

GFSSE_850_temp_018.txt.gz
Temp
15 15 15 16 16 16 17 17 16 16 16 16 16 15 15 16 16 16 16 16 16 16 16 16 15 15 15 15 15 15 15 15 14 14 14 14 14 14 14 14 14 13 14
15 15 15 16 16 16 16 16 16 16 16 16 16 16 16 15 15 15 15 15 15 15 15 15 15 15 15 15 15 15 15 14 14 14 14 13 13 13 14 14 14 13 14
14 14 15 15 16 16 16 16 16 15 15 15 15 15 15 15 15 15 15 15 15 15 15 15 15 15 15 15 15 15 15 15 14 14 14 14 13 13 13 13 13 14 13
15 14 14 15 15 15 16 15 15 15 15 15 15 15 15 15 15 15 15 15 15 15 15 15 15 15 15 14 15 15 15 15 15 14 14 13 13 12 13 13 13 13 13
15 14 14 15 15 15 15 15 15 15 15 15 15 15 15 15 15 15 15 15 14 15 15 14 14 14 14 14 14 14 14 14 14 13 13 12 13 12 12 12 13 13 13
15 14 15 15 15 15 15 15 15 15 15 15 15 15 15 15 15 15 14 14 14 15 14 14 14 14 14 14 14 14 14 14 13 13 13 12 12 12 12 12 12 12 12
15 15 15 14 14 14 14 15 15 15 15 15 14 15 15 15 14 14 14 14 14 14 14 14 14 14 14 14 14 14 14 14 14 13 13 12 12 12 12 12 12 12 12
14 15 14 14 14 14 14 15 15 15 15 15 14 14 14 14 14 14 14 14 14 14 14 14 14 14 14 14 14 13 13 13 13 13 13 13 13 12 12 11 11 12 12
14 15 14 14 14 14 14 14 14 14 14 14 14 14 14 14 14 14 14 14 14 14 14 13 13 13 13 13 13 13 13 13 12 12 13 12 12 12 12 12 11 11 12
15 14 14 13 14 14 14 14 14 14 14 14 14 14 14 14 13 13 13 13 13 13 13 13 13 13 13 13 12 12 12 12 12 13 13 12 12 12 12 12 11 11 11
14 14 13 13 12 12 12 14 14 14 14 13 14 13 13 12 12 13 13 13 13 13 13 13 13 13 12 12 12 12 12 12 12 12 12 12 12 12 12 11 11 11 11
13 14 14 14 14 12 12 14 13 13 12 12 12 13 11 12 12 12 13 13 13 13 12 12 12 12 12 12 12 12 12 11 12 12 11 11 11 12 12 11 11 11 11
13 13 14 14 14 12 12 12 12 12 12 13 13 12 12 13 12 12 12 12 12 12 11 11 11 11 12 12 11 11 11 11 11 11 10 11 11 11 11 11 11 11 11
13 13 15 15 14 14 13 12 13 12 13 12 13 13 13 12 12 12 12 11 12 12 12 12 11 12 12 11 11 11 10 10 10 11 10 10 10 10 10 11 11 11 11
14 13 15 15 15 14 14 13 13 13 12 12 13 13 13 12 13 12 12 12 12 12 12 11 10 10 10 10 9 10 9 9 9 9 9 9 9 9 10 10 10 10 10
14 13 15 15 14 14 12 13 13 13 13 12 12 12 12 12 11 12 12 11 11 11 11 10 11 11 10 9 9 8 8 8 8 8 9 8 8 9 9 9 9 9 9
15 13 14 14 14 13 13 12 12 14 12 12 12 13 12 11 11 11 12 10 10 11 11 10 10 9 9 9 9 8 8 8 7 7 7 8 7 7 8 8 8 8 8
15 13 15 14 14 13 13 12 12 12 11 11 12 12 12 11 11 11 10 10 11 11 10 8 8 8 8 8 7 7 8 7 7 6 6 7 6 6 6 6 8 7 7
15 13 15 15 14 13 12 13 11 11 11 11 12 11 11 11 10 10 10 10 10 9 8 8 7 6 7 7 7 7 7 6 7 7 6 5 4 4 4 4 6 6 6
13 13 14 14 14 12 12 11 11 11 11 11 11 11 11 11 10 10 10 9 9 7 6 6 6 6 5 5 5 6 6 6 6 6 5 4 4 3 3 2 2 3 3
15 15 13 13 12 12 11 12 12 10 11 11 11 11 10 10 10 9 8 7 6 6 5 5 5 5 5 5 4 5 5 6 5 5 4 4 3 3 2 2 1 1 1
12 11 11 11 12 11 11 11 11 10 10 11 11 11 10 9 8 7 7 5 5 5 5 4 4 4 4 3 2 3 5 5 6 5 3 3 3 2 2 1 0 -0 -0
11 11 11 11 11 10 11 11 11 11 11 10 9 8 8 7 6 6 5 5 5 4 4 3 2 2 3 3 2 2 3 4 3 3 3 2 2 1 0 0 -1 -1 -1
11 11 11 10 10 11 11 10 10 10 10 8 7 6 6 6 6 5 5 5 4 3 3 2 1 1 1 2 1 2 1 0 1 1 2 2 1 0 -0 -1 -1 -2 -2
10 11 10 11 11 11 10 10 9 9 8 7 6 6 5 5 4 4 3 3 3 2 2 2 0 0 0 0 1 0 -0 -0 -0 -0 -0 0 -0 -0 -1 -1 -2 -2 -2
9 11 10 10 9 9 10 10 9 8 7 6 5 5 5 5 5 4 3 2 2 1 1 0 -0 -1 -1 -1 -1 -1 -1 -1 -1 -1 -1 -1 -1 -1 -1 -2 -2 -2 -3

GFSSE_850_temp_021.txt.gz
Temp
16 16 16 16 16 16 16 17 16 16 16 16 16 15 16 16 16 16 16 16 16 16 15 15 15 15 15 15 15 15 15 15 14 14 14 14 14 14 14 14 14 13 14
16 16 16 16 16 16 16 16 16 16 16 15 16 16 16 16 16 16 16 16 15 15 15 15 15 15 15 15 15 15 15 15 15 14 14 14 13 14 14 14 14 14 14
16 15 16 16 16 16 16 16 16 16 15 15 16 16 15 16 16 16 16 15 15 15 15 15 15 15 15 15 15 15 15 15 15 14 15 14 15 14 13 13 13 14 14
15 16 15 15 16 16 16 15 16 15 15 16 16 15 15 15 15 15 15 15 15 15 15 15 14 14 15 15 15 15 15 15 14 14 15 15 14 14 13 13 14 14 13
14 14 15 15 15 15 15 15 15 15 15 15 15 15 15 15 15 15 15 15 15 15 15 14 14 14 14 14 14 15 14 14 15 15 14 13 14 13 13 13 13 14 14
15 14 15 15 15 15 14 15 15 15 15 15 15 15 14 14 15 15 15 15 15 14 14 14 14 14 14 14 14 14 14 14 15 15 14 13 11 13 13 13 13 13 13
14 14 14 15 15 14 14 14 14 14 15 14 14 14 14 14 14 14 14 14 14 14 14 14 14 14 14 14 13 13 14 14 14 15 15 12 13 12 12 12 12 12 12
13 14 14 14 14 14 14 14 14 14 14 14 14 14 14 14 14 14 14 14 14 14 14 14 14 14 13 13 13 13 13 13 14 14 14 13 12 12 12 12 12 12 12
14 14 14 14 14 14 14 14 14 14 14 14 14 14 13 14 14 14 14 14 14 14 14 13 13 13 13 13 13 13 13 13 13 14 14 13 12 12 12 12 12 12 12
13 14 14 14 13 14 14 14 14 14 14 14 14 13 13 13 13 13 13 13 13 13 13 13 13 13 13 13 12 12 13 13 13 14 14 13 12 12 12 12 11 12 12
14 15 14 14 13 13 13 13 14 14 14 13 14 13 13 12 12 13 13 13 13 13 13 13 13 13 12 13 13 12 13 13 13 13 13 13 12 12 11 11 11 11 11
14 13 13 14 14 14 14 13 12 13 13 12 12 13 13 12 12 12 13 13 13 13 13 12 12 12 12 12 13 12 12 12 13 13 12 12 11 11 11 11 11 11 11
14 13 13 13 14 13 13 13 13 13 12 12 12 12 12 12 12 12 13 13 12 12 13 12 12 12 11 11 11 11 11 11 12 12 12 11 11 10 10 11 11 11 11
14 13 13 13 13 13 13 14 13 13 13 13 13 11 12 12 12 12 13 13 12 13 12 12 12 11 11 11 11 10 10 10 11 10 11 10 10 9 10 10 10 10 10
16 14 12 12 12 12 13 12 12 12 13 13 12 13 12 12 12 12 12 11 12 12 12 12 12 11 11 11 10 10 10 10 10 10 10 10 9 9 9 9 9 9 9
16 15 13 13 12 13 12 12 12 13 13 13 12 12 12 12 13 12 11 11 11 10 10 10 10 10 10 10 10 10 9 9 9 9 9 9 9 8 8 8 8 8 8
17 15 14 13 13 12 12 13 13 13 13 12 12 12 12 11 11 11 11 11 10 10 10 10 10 10 10 10 10 9 9 9 9 9 8 8 8 8 7 7 7 7 7
17 15 14 13 12 13 14 13 13 13 12 11 12 12 12 12 11 11 10 9 10 9 9 9 9 9 8 9 9 8 8 8 8 8 8 8 7 7 6 6 5 5 6
17 15 13 12 12 13 13 13 12 12 12 11 11 11 11 11 11 9 9 8 9 8 8 8 8 7 8 8 8 8 7 8 8 7 7 8 6 6 5 4 4 4 3
17 15 13 12 12 12 13 12 11 11 10 10 10 9 9 9 10 9 8 9 9 8 8 7 6 6 7 7 7 6 6 7 7 7 6 7 6 6 5 4 3 3 3
16 15 12 13 12 12 11 11 11 10 10 10 10 9 9 9 9 9 8 8 7 7 6 6 6 5 6 6 6 5 5 5 7 7 7 6 5 5 4 4 3 2 2
14 14 12 11 11 11 12 12 12 12 11 10 9 10 9 9 7 7 7 6 6 6 6 5 5 5 5 5 5 4 4 5 6 6 5 4 4 4 4 3 2 1 1
13 12 12 12 12 13 13 12 11 11 10 10 9 9 7 6 6 6 6 5 5 5 5 5 4 3 4 4 4 4 3 4 3 3 4 4 4 3 2 2 1 1 0
13 13 13 13 12 11 12 12 12 12 12 10 9 8 7 6 6 6 5 5 4 4 4 4 4 3 2 3 3 3 3 2 2 2 2 2 2 2 2 1 1 0 -0
13 13 12 12 11 11 11 10 11 10 9 8 8 7 7 7 6 6 6 5 4 3 3 3 2 2 2 2 2 1 1 1 1 1 1 1 1 1 1 1 0 -0 -0
12 11 11 11 10 10 9 9 8 8 8 8 7 7 6 6 5 5 4 4 3 3 3 3 2 1 1 0 1 1 1 1 0 0 0 0 0 1 0 0 -0 -0 -1

GFSSE_850_temp_027.txt.gz
Temp
17 17 16 16 16 16 16 16 16 16 16 16 16 16 16 16 16 16 16 16 16 16 16 16 15 15 15 15 15 15 15 14 14 13 13 13 13 14 14 14 14 14 14
17 17 16 16 15 15 16 16 16 15 16 16 16 16 16 16 16 16 16 16 16 15 15 15 15 15 15 15 15 15 14 14 13 13 13 13 13 13 13 14 14 14 14
16 15 15 16 15 15 15 15 15 15 16 16 16 16 16 16 16 16 16 15 15 15 15 15 15 15 15 15 14 14 14 14 13 14 13 13 13 13 14 14 14 14 13
16 15 15 15 15 15 15 15 15 15 16 16 16 16 16 16 16 15 15 15 15 15 14 14 14 15 15 15 14 14 14 14 14 14 13 13 14 14 13 13 13 13 13
15 15 16 15 14 14 14 15 15 15 16 15 16 16 15 15 15 15 15 15 15 14 14 14 14 14 14 15 15 15 14 14 14 14 14 14 14 14 13 13 12 12 13
15 15 15 14 14 14 14 15 15 15 15 15 15 15 15 15 15 15 15 15 14 14 14 14 14 14 14 14 14 14 14 13 13 13 14 14 13 14 13 13 12 12 12
14 14 13 14 13 14 14 14 15 15 15 15 15 15 15 15 15 15 15 14 15 14 14 14 14 14 14 13 13 14 14 13 13 13 13 13 13 13 13 12 12 12 12
13 13 13 14 13 14 14 14 15 15 15 15 15 15 15 15 15 15 14 14 14 14 14 14 14 13 13 13 13 13 13 13 13 12 13 13 13 13 13 12 11 12 12
12 12 13 13 14 14 14 14 15 15 15 15 15 15 15 15 15 15 14 14 14 14 14 14 13 13 12 12 12 12 13 13 12 12 13 13 12 12 12 12 11 11 11
12 12 13 13 13 13 13 14 15 15 15 15 15 15 14 14 14 14 14 14 14 14 14 13 13 12 12 12 12 12 12 12 12 12 12 12 12 12 12 12 11 11 11
13 12 12 13 13 14 14 14 15 15 15 14 14 14 14 13 14 14 14 14 14 13 13 12 12 12 12 12 12 11 12 12 12 11 11 11 11 11 11 11 10 10 10
13 12 12 12 13 14 14 14 15 14 14 13 13 13 13 14 14 13 13 13 13 12 12 12 12 12 11 11 11 11 11 10 11 11 11 11 10 10 10 9 9 9 9
13 12 12 12 13 14 14 15 13 13 13 13 13 13 13 13 13 12 12 12 12 12 12 12 12 11 11 11 11 11 10 10 10 10 10 10 9 9 9 8 8 8 8
13 12 12 13 13 14 14 13 13 13 13 13 12 12 13 13 12 12 12 12 12 12 11 11 12 12 11 11 11 10 10 10 9 9 9 9 9 9 8 8 8 8 8
12 13 13 13 14 14 13 13 13 13 13 13 13 12 13 12 12 13 13 12 13 12 12 11 11 11 11 11 10 10 10 10 9 9 9 8 8 8 8 8 7 7 7
13 13 13 14 14 13 13 13 13 13 13 12 13 12 12 12 13 13 13 13 12 11 11 11 11 11 11 10 10 9 9 9 8 9 9 8 8 8 8 7 7 6 6
15 14 14 13 13 13 14 13 13 14 14 13 13 13 12 12 13 12 12 12 12 11 11 11 11 10 10 9 9 8 8 7 8 8 8 8 7 7 7 6 6 6 5
16 14 14 14 13 13 13 13 14 14 14 13 13 13 13 12 12 11 11 12 11 11 11 11 10 9 9 8 7 7 7 7 7 7 7 7 7 7 6 6 5 5 4
16 16 14 13 13 13 13 14 14 14 14 13 12 12 12 12 11 11 12 11 11 10 10 9 9 8 8 7 6 6 6 6 6 6 6 6 6 5 5 5 4 4 3
16 15 14 14 13 13 13 14 14 13 12 11 11 12 12 11 11 12 11 11 10 9 8 8 7 7 7 6 5 5 5 5 5 5 5 5 5 5 4 4 3 3 3
16 14 14 15 14 13 13 13 12 11 11 10 10 11 12 12 11 10 10 9 9 8 7 7 7 6 5 5 4 5 5 5 4 4 4 4 4 4 4 3 3 2 2
15 14 15 14 14 13 13 13 12 11 11 10 11 11 11 10 10 9 9 8 8 7 7 6 6 5 4 4 4 3 3 3 3 3 3 3 3 2 2 2 2 1 1
15 14 16 14 14 13 12 12 11 10 10 11 10 10 10 9 8 8 8 7 6 6 5 5 5 4 4 3 3 3 2 2 1 1 1 1 1 2 1 1 1 0 0
15 14 13 13 13 13 12 11 11 11 11 10 10 9 8 8 9 8 7 7 6 6 5 5 4 3 3 3 2 2 2 2 1 1 1 0 0 1 1 1 -0 -0 -1
15 15 14 13 12 12 11 11 11 11 11 10 9 8 7 9 9 8 7 7 6 6 5 5 4 3 2 2 2 1 1 1 0 0 0 -0 -0 0 -0 -1 -1 -1 -1
16 14 13 12 12 12 12 12 12 11 10 9 8 8 9 8 7 7 7 6 6 5 4 3 2 2 2 2 1 1 1 -0 -0 -0 -1 -1 -1 -1 -1 -1 -1 -1 -2

GFSSE_850_temp_030.txt.gz
Temp
16 16 16 16 16 16 16 16 16 16 16 17 17 17 17 17 16 16 16 16 16 15 15 15 15 15 15 15 14 13 13 13 13 13 13 13 13 13 13 13 13 14 14
17 16 15 16 16 15 16 15 15 16 16 17 17 17 17 16 16 16 16 15 16 16 15 15 15 15 14 14 13 13 14 14 14 13 13 13 14 13 13 13 13 13 13
15 15 16 16 16 16 15 15 15 16 16 16 16 16 16 16 16 16 16 15 15 15 15 15 15 14 14 14 14 14 14 14 14 14 13 14 14 14 13 13 13 12 12
16 16 16 16 16 15 15 15 15 16 16 16 16 16 16 16 16 16 15 15 15 15 15 15 15 15 14 14 14 14 14 14 14 13 13 13 13 13 13 13 12 12 12
16 15 15 16 16 15 15 15 15 15 15 16 16 16 16 16 16 16 15 15 15 15 15 14 14 14 15 14 13 13 13 13 13 13 13 13 13 13 13 13 12 12 12
14 14 15 15 15 15 14 15 15 15 15 15 16 16 16 16 16 16 16 15 15 15 14 14 14 14 14 14 13 13 13 13 13 13 13 13 13 13 13 12 12 12 12
14 14 14 15 15 14 14 15 15 15 15 16 16 15 16 16 16 16 15 15 15 15 14 14 14 14 13 14 13 13 13 13 13 12 12 12 13 12 12 12 12 12 12
13 13 13 13 14 14 14 15 15 15 15 15 15 15 15 16 16 15 15 15 15 14 14 14 13 13 13 13 13 13 13 13 12 12 12 12 12 12 12 12 12 11 11
12 12 12 12 12 13 14 15 15 15 15 15 15 15 15 15 15 15 15 15 14 14 13 13 13 13 13 13 13 12 12 12 12 12 12 12 11 11 11 11 11 11 11
12 11 11 11 12 13 13 14 15 15 15 15 15 15 15 15 15 15 14 14 14 14 13 13 13 13 12 12 12 12 12 12 11 11 11 11 11 11 10 10 10 10 10
12 11 11 12 12 13 14 14 14 15 14 14 14 15 15 15 14 14 14 13 13 13 12 12 12 12 12 12 12 11 11 11 11 11 11 10 10 10 10 10 10 9 9
13 13 13 12 12 13 14 14 14 15 14 14 14 14 14 13 13 13 13 12 12 12 12 12 12 11 11 11 11 11 10 10 10 10 10 9 9 9 9 9 9 9 9
13 14 13 12 12 13 14 14 14 14 13 13 13 13 13 13 13 12 12 12 12 12 12 12 11 11 11 11 11 10 10 10 10 9 9 9 9 9 8 8 8 8 8
13 14 12 12 13 14 14 14 14 14 13 12 13 13 13 12 13 12 12 12 12 12 12 12 11 11 11 11 11 11 10 10 9 9 9 8 8 8 8 7 7 8 7
13 13 13 13 13 13 14 13 13 13 13 13 13 12 12 12 12 12 12 12 12 12 11 11 11 11 11 11 10 10 10 9 9 9 8 8 8 7 7 7 7 6 6
13 12 12 13 13 13 13 13 13 13 13 13 12 12 12 12 12 12 12 12 12 12 11 11 11 11 11 10 10 9 9 9 8 7 8 8 7 7 7 7 6 6 5
13 13 13 13 13 13 13 13 13 13 12 12 12 12 12 13 13 12 12 12 12 11 11 11 11 10 10 10 9 8 8 7 7 7 7 7 7 7 6 6 5 5 4
13 12 13 13 13 13 13 13 13 12 12 12 12 12 13 13 12 12 12 11 11 11 11 11 11 10 9 8 8 8 7 6 6 6 6 6 6 6 5 4 4 4 3
14 13 13 13 13 13 13 13 13 13 12 13 13 13 13 12 12 11 11 10 11 11 11 10 10 9 8 7 6 6 6 5 5 5 5 5 4 4 4 3 3 3 2
16 15 14 13 13 13 13 13 13 13 13 13 12 12 12 11 12 12 11 11 11 11 10 9 8 8 7 7 6 6 5 4 4 4 4 4 4 3 3 3 2 2 2
15 15 15 15 14 14 13 13 13 13 13 12 12 12 12 12 12 11 11 11 10 9 8 8 8 7 7 6 5 4 4 4 4 4 4 3 3 3 2 2 2 1 1
16 15 15 15 15 14 14 13 14 13 13 12 12 11 11 11 11 11 11 10 10 10 9 8 7 7 5 4 3 3 3 3 3 3 3 2 2 3 2 2 1 1 0
15 16 15 15 15 15 14 13 13 13 12 11 11 10 11 10 10 10 10 10 9 8 8 6 5 4 3 3 3 3 2 2 2 1 1 1 1 1 1 1 1 0 -0
16 16 15 15 13 13 13 12 13 12 11 11 11 10 10 9 10 10 10 9 8 7 6 6 5 4 3 3 2 2 2 1 1 1 1 0 0 0 0 0 0 -0 -1
16 15 16 13 12 12 12 12 12 12 12 11 10 10 9 9 9 9 9 8 6 6 6 5 5 4 3 2 2 2 1 1 1 0 -0 -0 -0 -0 -0 -1 -1 -1 -1
16 15 14 13 12 11 12 12 12 12 11 10 10 9 9 9 8 7 6 6 6 5 5 5 4 2 2 1 1 1 0 0 -0 -1 -1 -1 -1 -1 -1 -1 -1 -1 -2

GFSSE_850_temp_033.txt.gz
Temp
16 16 16 16 17 17 17 17 16 16 17 17 17 17 17 17 17 16 16 16 16 15 15 15 14 14 13 13 14 14 14 13 13 13 14 14 13 13 13 13 13 13 13
15 16 16 16 16 17 17 16 16 16 17 17 16 17 16 16 16 16 16 16 16 15 15 14 14 14 14 14 14 14 14 14 13 14 13 14 13 13 13 13 13 12 12
15 15 15 16 16 17 16 16 16 16 16 16 16 16 16 16 16 16 16 16 15 15 15 14 14 14 14 14 14 14 14 13 13 13 13 13 13 13 13 13 12 12 12
15 15 15 15 16 16 16 16 16 16 16 16 16 16 16 16 16 16 16 15 15 15 15 14 14 14 14 14 14 13 13 13 13 13 13 13 13 13 13 13 13 13 12
14 14 15 15 16 15 15 16 16 16 16 16 16 16 16 16 16 16 15 15 15 15 14 14 13 13 13 14 13 13 13 13 13 12 12 12 13 13 12 12 12 12 12
14 14 14 15 16 15 15 16 16 16 16 16 16 16 16 16 15 15 15 15 15 14 14 14 13 13 14 13 13 13 13 12 12 12 12 12 12 12 12 12 12 12 12
14 14 14 15 15 14 15 15 16 16 16 16 16 16 16 16 15 15 15 15 14 14 14 14 14 14 14 14 13 13 13 12 12 12 12 12 12 12 11 11 12 11 11
14 13 13 13 13 14 15 15 16 16 16 16 15 16 16 15 15 15 15 14 14 14 14 14 14 13 13 13 13 13 12 12 12 12 11 12 11 11 11 11 11 11 11
13 12 12 12 12 14 14 14 15 15 16 15 15 15 15 15 14 14 14 14 14 14 14 14 13 13 12 12 12 12 12 12 12 11 11 11 11 11 11 10 10 10 10
11 12 12 11 12 13 13 14 16 16 15 15 15 15 15 14 14 14 14 14 13 13 13 13 13 12 12 12 12 12 12 12 11 11 11 10 10 10 10 10 10 10 10
12 11 11 11 13 14 14 14 15 15 14 14 14 14 14 14 14 13 13 13 13 13 13 13 12 12 12 12 11 11 11 11 10 10 10 10 9 9 9 9 9 9 9
12 11 11 11 12 13 13 14 14 14 14 14 14 14 13 13 13 13 13 13 13 12 13 12 12 12 12 11 11 11 10 10 10 10 9 9 9 8 8 8 8 8 8
13 13 11 12 12 12 13 13 14 13 13 13 13 13 13 13 13 13 13 13 12 12 12 12 12 11 11 11 10 10 10 10 9 9 9 9 8 8 8 7 7 7 7
12 13 12 12 12 13 13 14 13 13 13 13 13 13 13 13 13 12 12 12 12 12 12 12 11 11 11 10 10 10 10 10 9 9 8 8 8 8 6 6 6 7 6
13 13 12 12 12 13 13 13 13 12 13 13 13 13 13 13 13 13 12 12 12 12 11 11 11 11 10 10 10 10 9 9 9 9 8 7 7 7 7 6 6 6 6
14 13 13 13 14 13 13 13 13 13 12 13 12 12 12 12 12 12 12 12 12 11 10 10 10 10 10 10 9 9 8 8 8 7 7 7 7 7 7 5 5 4 4
14 13 13 13 13 13 13 13 13 12 13 13 12 12 12 12 12 12 12 12 11 11 10 10 10 10 9 9 8 8 8 7 7 7 6 6 6 6 6 5 4 4 4
14 14 14 13 13 13 12 12 12 12 12 12 12 12 12 12 12 12 11 11 11 10 10 10 10 9 9 8 8 8 7 6 6 5 5 5 5 5 5 4 4 4 3
14 13 13 13 13 13 13 13 12 12 12 12 12 12 12 12 11 11 11 11 11 11 10 10 9 9 8 7 7 7 6 5 5 5 4 4 4 4 3 3 3 2 2
14 13 14 13 13 13 13 13 12 11 11 12 12 12 12 12 11 11 11 11 11 10 10 10 9 8 8 8 7 6 5 5 4 4 4 3 3 3 3 3 3 3 2
13 13 13 13 13 13 13 13 12 12 12 12 12 12 11 11 11 11 11 10 10 10 10 9 9 8 8 8 7 6 5 4 3 4 3 3 3 2 2 2 2 2 1
14 13 13 13 13 13 13 13 13 12 12 12 11 11 11 11 11 11 10 10 10 10 9 9 9 8 7 6 5 4 3 3 3 3 2 3 2 2 2 1 1 1 0
15 15 15 14 14 13 13 13 12 12 12 11 11 11 10 11 10 9 9 9 9 9 9 9 8 7 6 5 4 3 2 2 2 2 1 1 1 1 1 0 0 0 -0
16 16 16 15 15 14 13 13 12 13 12 12 12 11 10 9 9 9 9 9 9 7 7 7 6 6 5 4 3 2 2 1 1 0 0 0 0 0 0 -0 -0 -0 -1
15 15 15 15 14 14 13 12 13 11 11 12 11 10 9 9 9 9 9 8 6 7 7 6 5 4 4 3 2 1 1 0 0 0 0 -0 -1 -1 -1 -1 -1 -1 -1
15 15 15 14 15 13 13 14 12 10 11 12 11 9 9 9 9 8 8 7 6 5 5 5 4 4 2 1 1 0 0 -0 -1 -1 -1 -2 -2 -1 -2 -2 -2 -2 -2

GFSSE_850_temp_036.txt.gz
Temp
16 15 15 15 16 17 17 17 17 17 17 17 17 17 17 17 16 16 16 15 15 15 15 15 15 15 14 14 14 13 13 13 13 13 14 14 13 13 13 13 13 13 13
16 15 15 15 16 17 17 17 17 17 17 17 17 17 16 16 16 16 15 15 15 15 15 15 15 14 14 13 14 13 13 13 13 13 13 13 13 13 13 13 13 13 13
16 15 15 15 16 17 17 17 17 17 17 17 16 16 16 16 15 15 15 15 14 14 14 14 14 14 14 13 13 13 13 13 13 13 13 13 13 13 13 13 13 13 13
15 15 15 15 16 17 16 16 17 17 17 17 16 16 16 16 15 15 15 14 14 14 14 14 14 14 14 13 13 13 13 12 12 13 13 12 12 12 12 12 12 13 13
15 14 15 15 16 16 15 16 16 16 17 16 16 16 16 15 15 15 15 14 14 14 14 14 14 14 14 14 13 13 12 12 12 12 12 12 12 12 12 12 12 12 12
14 14 14 15 15 15 15 16 16 17 16 16 16 15 15 15 15 15 14 14 14 14 14 14 14 14 14 14 13 13 13 13 12 12 12 12 12 12 12 12 12 12 12
14 14 14 14 14 15 15 16 16 16 16 16 15 15 15 15 15 14 14 14 14 14 14 14 14 14 13 13 13 13 12 12 12 12 11 11 11 11 11 11 11 11 11
13 13 12 12 13 14 15 16 15 16 15 15 15 15 15 14 14 14 14 14 14 14 13 13 13 13 13 13 13 12 12 12 12 11 11 11 11 11 10 10 10 10 10
13 13 12 11 12 12 14 15 15 15 15 15 15 15 14 14 14 14 14 14 14 14 13 13 13 13 12 12 12 12 12 12 11 11 11 11 10 10 10 10 10 9 9
13 12 12 11 10 12 14 14 14 15 14 15 15 14 14 14 13 14 14 14 13 13 13 13 13 12 12 12 12 11 11 11 11 10 10 10 9 9 9 9 9 9 9
12 11 11 10 11 13 14 13 13 15 15 15 14 14 14 13 13 14 14 13 13 13 13 13 12 12 12 11 11 11 10 10 10 10 9 9 9 8 8 8 8 8 8
11 11 10 9 11 11 12 13 14 15 15 14 13 14 14 14 13 13 13 13 13 13 13 12 12 12 11 11 11 10 10 9 9 9 9 9 8 7 7 7 7 7 7
12 11 10 10 11 12 13 14 14 14 14 14 13 13 14 13 13 13 13 12 13 12 12 12 12 12 11 10 10 10 10 9 9 9 8 8 8 7 7 7 7 6 6
10 10 11 11 11 12 13 14 14 13 13 13 13 13 13 13 13 13 13 13 12 12 12 12 11 11 11 10 10 10 10 9 9 9 9 8 7 7 6 7 6 6 6
12 12 11 11 11 12 13 13 13 13 13 13 12 12 13 13 13 12 12 12 12 12 11 11 11 10 10 10 10 9 9 9 9 9 9 8 7 7 7 6 6 5 5
12 12 12 12 12 13 13 13 13 13 12 12 12 12 13 12 12 12 12 12 12 11 11 10 10 10 10 10 9 9 9 9 9 8 8 7 7 6 6 5 5 4 3
13 13 13 12 12 12 13 12 12 12 12 12 13 12 12 12 12 12 11 11 11 11 11 10 10 10 10 9 9 8 8 8 7 6 6 6 6 6 6 5 4 4 3
13 14 13 13 13 13 13 12 12 12 12 12 12 12 12 12 12 11 11 11 11 11 10 10 10 10 9 9 8 8 7 6 6 5 5 5 5 5 5 4 4 3 3
14 14 13 13 13 13 13 12 12 12 12 12 12 12 12 12 11 11 11 11 10 10 10 10 10 9 9 8 8 7 6 6 5 4 4 4 4 4 4 3 3 3 3
13 13 13 13 13 13 12 12 11 12 12 12 12 12 12 12 11 11 10 10 10 10 10 9 9 8 8 7 7 6 6 5 4 4 4 3 3 3 3 3 2 2 2
13 14 14 13 13 13 12 12 12 12 12 12 11 12 12 12 11 10 9 9 9 9 9 8 7 7 6 6 6 5 5 5 4 4 3 3 3 2 2 2 2 1 1
15 14 14 13 13 13 13 12 12 12 12 11 11 12 11 11 10 9 9 9 9 8 8 7 7 6 7 6 6 5 5 4 3 3 2 2 2 2 2 1 1 1 0
15 15 14 14 14 13 13 13 13 12 11 11 11 11 11 10 9 9 9 9 8 8 7 7 6 6 7 7 5 4 3 2 2 2 2 1 1 0 1 0 0 -0 -0
15 15 14 14 14 13 13 13 13 13 12 12 11 11 10 9 9 9 8 8 8 7 7 7 7 7 7 6 5 4 2 2 1 0 0 0 -0 -0 -0 -0 -0 -1 -1
16 15 15 14 14 13 13 13 12 12 12 11 11 10 9 9 8 8 8 8 7 7 7 6 6 7 6 6 4 3 1 1 0 -0 -1 -1 -1 -1 -1 -1 -1 -2 -2
16 16 15 15 15 14 13 13 12 12 11 10 10 9 9 9 8 8 8 7 7 6 6 6 7 5 5 4 3 1 1 0 -0 -1 -1 -1 -1 -2 -2 -2 -3 -3 -3

GFSSE_850_temp_039.txt.gz
Temp
15 15 15 16 16 17 17 17 17 17 17 17 17 17 17 16 16 16 16 16 16 15 15 14 14 14 13 13 13 13 13 13 13 14 14 14 14 14 14 14 14 14 13
15 15 15 16 16 16 16 17 17 17 17 17 17 17 16 16 16 16 16 16 16 15 15 14 14 14 14 14 14 13 13 13 13 13 14 13 13 13 13 13 13 14 14
14 15 15 15 16 16 16 16 17 17 17 17 17 16 16 16 16 16 15 15 15 15 15 15 14 14 14 14 13 13 13 13 13 13 13 11 12 12 12 13 13 13 13
14 14 14 15 15 16 16 16 17 17 17 17 17 16 16 16 16 15 15 15 15 15 15 15 14 14 14 13 13 13 13 13 13 13 12 11 10 12 12 12 12 12 13
14 14 14 15 15 15 16 16 17 17 17 16 16 15 16 15 15 14 15 15 15 15 15 14 14 14 14 13 13 13 13 12 12 12 12 12 10 12 12 11 11 12 12
14 14 14 15 15 15 16 16 16 16 16 16 15 15 15 15 14 14 14 14 14 14 14 14 14 14 13 13 13 12 12 12 12 12 12 12 11 11 11 11 11 11 11
14 13 13 14 14 15 16 16 16 16 15 15 15 15 15 15 14 14 14 14 14 14 14 14 14 13 13 13 12 12 12 12 12 12 11 10 11 11 11 10 10 10 10
14 13 12 12 12 15 16 16 16 16 15 15 15 15 14 14 14 14 14 14 14 14 13 13 13 13 12 12 12 12 12 11 11 11 11 10 11 10 10 10 10 10 10
13 13 12 12 10 13 15 15 15 14 15 14 14 14 14 14 14 14 13 13 13 13 13 13 13 12 12 12 12 11 11 11 11 11 10 9 10 10 9 9 9 9 9
13 12 12 11 11 10 13 14 15 15 15 14 15 14 14 14 14 13 13 13 13 13 13 12 12 12 12 12 11 11 11 11 11 10 9 8 8 8 9 9 9 8 8
12 12 11 10 9 10 12 14 14 15 14 14 14 14 14 14 14 13 13 13 13 12 12 12 12 12 11 11 11 11 10 10 10 10 9 9 9 8 8 8 8 7 7
11 11 11 10 7 9 12 14 13 13 13 14 14 14 14 13 13 13 13 13 12 12 12 12 12 12 11 11 11 10 10 10 10 9 9 9 8 7 7 7 7 7 7
10 10 10 10 9 11 12 12 13 12 13 14 14 14 13 13 13 13 13 13 12 12 12 12 11 11 11 11 10 10 10 10 9 9 9 8 8 7 7 7 7 6 6
9 9 9 10 10 10 11 12 12 12 14 14 13 14 13 13 13 13 13 12 12 12 12 11 11 11 10 10 10 10 10 10 9 9 9 9 8 7 7 7 6 6 6
10 9 9 10 10 10 11 11 12 13 14 13 13 13 13 13 13 12 12 12 12 12 11 11 11 11 10 10 10 10 10 9 9 9 9 8 8 7 7 6 6 6 5
11 11 11 10 11 11 12 12 13 13 13 13 13 13 13 12 12 12 12 12 12 11 11 11 10 10 10 10 10 9 9 9 9 9 8 8 8 7 7 6 6 5 5
11 11 12 11 11 11 12 12 13 13 13 13 12 12 12 12 12 12 12 12 11 11 11 10 10 10 10 9 9 9 9 9 8 8 7 6 6 6 6 5 5 4 3
12 12 12 11 11 12 12 13 13 12 12 12 12 12 12 12 12 12 11 11 11 11 10 10 10 9 9 9 9 8 8 7 6 6 5 5 5 4 4 4 4 4 3
12 12 12 12 12 13 12 13 12 12 12 11 12 12 12 13 12 11 11 11 10 10 10 10 9 9 9 9 8 8 7 6 5 4 4 4 4 3 3 3 3 3 3
13 12 12 12 13 12 12 12 12 12 12 12 12 12 12 12 12 11 11 10 10 10 10 9 9 9 8 8 7 6 6 6 5 4 4 3 3 3 3 3 3 2 2
14 13 13 12 13 12 12 13 12 12 12 12 12 12 12 12 11 11 10 10 9 9 9 8 8 8 8 7 6 5 6 5 4 4 3 3 2 2 2 2 2 1 1
14 14 13 13 13 13 13 13 12 12 12 12 12 12 11 11 11 10 10 9 9 9 8 8 8 8 7 6 6 6 5 4 4 3 3 2 2 1 1 1 1 1 0
15 14 14 13 13 13 13 13 12 12 12 12 12 11 11 11 11 10 9 9 9 9 8 8 7 7 6 5 6 6 5 5 3 3 2 2 1 1 0 0 0 -0 -0
15 15 14 14 14 13 13 13 13 12 12 12 12 11 11 11 10 9 9 9 8 8 7 7 6 6 5 5 6 6 6 4 3 3 1 0 1 0 -0 -1 -1 -1 -1
16 16 15 14 14 14 14 13 13 12 12 12 11 11 10 10 10 9 9 8 8 8 7 6 6 5 6 6 6 5 4 3 2 1 1 1 -0 -1 -1 -2 -2 -2 -2
17 16 16 15 14 14 14 14 13 12 12 11 11 10 10 10 9 9 8 8 8 7 6 6 6 7 6 5 5 5 3 1 1 0 0 0 -1 -2 -2 -2 -2 -2 -2

GFSSE_850_temp_042.txt.gz
Temp
15 14 16 16 16 16 16 16 16 16 16 16 16 16 16 16 16 16 15 15 15 15 15 14 14 14 14 14 14 14 14 14 14 14 14 14 13 13 13 13 11 11 12
15 14 16 16 16 16 16 16 16 16 16 16 16 16 16 16 16 16 16 15 15 14 14 14 14 14 14 14 13 13 13 13 13 13 12 13 13 13 13 13 13 13 12
14 14 16 16 16 16 16 16 16 16 16 16 16 16 16 16 16 16 16 15 15 15 14 14 14 14 14 13 13 13 13 13 13 12 12 12 12 13 13 13 13 13 13
14 13 13 16 16 16 16 16 16 16 16 16 16 16 16 16 16 16 15 15 15 15 14 14 14 14 13 13 13 13 13 13 13 12 13 12 11 12 13 12 12 12 12
14 14 13 15 16 16 16 16 16 16 16 16 16 16 16 16 16 15 15 15 15 14 14 14 14 14 13 13 13 13 13 13 12 12 12 11 11 11 12 11 10 12 12
14 14 15 15 15 15 16 16 16 16 16 16 16 16 16 15 15 15 15 15 14 14 14 14 14 13 13 13 13 13 13 12 12 12 12 10 9 11 11 11 11 11 11
14 13 15 15 15 15 15 16 16 16 16 16 15 15 15 15 15 15 15 14 14 14 14 14 13 13 13 12 12 12 12 12 12 12 11 10 10 11 11 11 11 10 10
14 13 12 13 14 14 15 15 15 15 16 15 15 15 15 15 15 14 14 14 14 14 13 13 13 12 12 12 12 12 12 11 12 12 11 10 11 10 10 10 10 10 10
13 13 12 11 11 12 13 14 15 15 15 15 15 14 15 14 14 14 14 14 13 13 13 13 13 12 12 12 12 12 12 12 11 11 11 10 10 10 10 9 9 9 9
13 12 11 11 11 12 12 14 14 14 15 15 14 14 14 14 13 14 13 13 13 13 13 12 12 12 12 11 11 11 11 11 11 11 11 9 8 8 8 9 8 8 8
13 12 11 10 10 10 10 12 14 14 14 14 13 14 14 12 12 12 13 13 13 12 12 12 12 11 11 11 11 11 10 10 11 11 10 9 8 8 8 8 8 7 7
12 11 10 10 9 8 11 11 11 12 13 13 13 13 12 11 12 12 13 12 12 12 12 12 12 11 11 10 11 10 10 10 10 10 9 9 8 7 7 7 7 7 7
10 9 9 8 8 8 9 11 12 13 14 13 13 12 12 12 13 11 12 12 12 12 12 12 11 11 11 10 10 10 10 10 10 9 9 9 9 8 7 7 7 6 6
10 9 9 9 9 8 8 9 12 12 12 13 12 11 13 12 13 12 11 11 12 11 12 12 11 11 11 10 10 11 10 9 9 9 8 9 8 7 7 7 7 6 6
9 8 7 7 8 9 8 10 11 12 13 13 11 13 12 12 13 12 12 11 12 12 11 11 11 11 10 11 11 10 10 10 10 8 8 8 8 7 7 6 6 5 5
8 8 8 8 8 8 9 10 11 13 13 11 11 13 13 13 13 12 12 12 12 11 11 11 10 9 9 10 10 10 10 9 9 9 7 7 7 8 7 6 6 5 5
8 9 8 9 9 10 10 11 11 11 10 11 13 13 13 13 13 12 12 12 12 11 11 11 10 10 10 10 10 10 9 9 8 8 7 6 6 7 7 6 5 5 4
10 9 9 9 10 11 11 11 10 10 10 11 11 13 12 12 12 12 12 11 11 11 11 10 9 9 9 9 9 8 8 8 8 8 7 7 5 6 5 5 4 5 4
11 10 10 11 11 11 10 12 12 12 12 11 12 12 12 12 12 12 12 11 11 11 10 10 10 9 8 8 8 7 7 6 6 5 5 4 5 4 5 4 4 4 3
12 11 10 11 10 11 11 11 10 11 11 10 11 12 12 12 12 12 11 11 11 10 10 9 9 9 8 8 8 7 6 5 5 4 4 4 4 3 3 3 4 3 3
12 11 11 10 10 11 11 10 11 11 11 10 12 12 12 12 12 12 11 11 10 10 9 9 9 9 7 8 7 7 5 4 4 4 4 4 3 3 2 2 3 3 3
12 12 11 11 11 11 11 11 11 11 11 10 10 11 12 12 12 12 11 10 10 9 9 9 9 8 7 8 7 6 8 7 4 3 4 3 3 2 2 2 2 1 1
13 12 12 12 12 11 11 11 11 11 11 10 12 12 12 12 11 11 11 10 10 9 9 9 9 8 7 6 6 6 7 9 7 6 3 3 2 2 2 2 1 0 0
13 13 12 12 12 12 11 12 11 12 12 11 11 12 12 12 11 11 11 10 9 9 9 9 9 8 7 6 7 6 4 5 6 7 4 3 2 2 2 1 1 0 -0
14 13 12 12 12 12 11 11 11 11 12 12 10 11 12 11 11 10 10 9 9 9 9 8 8 8 7 6 6 4 4 4 3 4 5 5 4 3 2 1 0 -0 -0
15 14 13 13 12 12 11 13 12 12 11 11 12 12 11 11 10 10 9 9 8 8 8 8 7 7 7 6 5 4 4 4 5 4 4 4 3 3 2 0 -0 -0 -1

GFSSE_850_temp_045.txt.gz
Temp
17 17 17 16 16 16 16 16 16 17 17 17 17 16 16 16 16 15 15 15 15 15 14 14 14 14 14 14 14 14 14 14 13 13 14 14 14 13 12 12 11 11 12
17 17 16 15 15 16 16 16 16 16 16 16 17 17 17 16 16 15 15 15 15 14 13 14 14 14 14 14 14 14 14 14 13 13 13 13 13 13 13 13 13 13 12
16 15 16 15 15 16 16 16 16 16 16 16 17 17 16 16 16 15 15 15 14 14 14 14 14 14 14 14 14 14 13 13 13 13 13 12 12 13 13 13 13 13 13
15 14 15 14 14 15 15 15 15 16 16 17 17 16 16 16 15 15 15 14 14 14 14 14 14 14 14 13 13 13 13 13 13 13 13 12 11 12 12 12 12 12 12
15 14 14 14 15 15 15 15 15 16 16 16 16 16 15 15 15 15 14 14 14 14 14 14 14 13 13 13 13 13 13 13 13 13 12 11 10 12 11 11 12 12 12
15 14 14 14 15 15 15 15 16 16 16 16 16 16 15 15 15 15 15 14 14 14 14 13 13 13 13 13 13 13 13 13 14 13 11 10 11 12 12 12 11 11 11
14 14 14 15 15 15 15 15 16 16 16 15 15 15 15 15 15 15 15 14 14 14 13 13 13 13 13 13 13 13 13 13 14 13 11 10 12 11 11 11 11 11 11
14 13 13 14 14 15 15 15 16 15 15 15 15 15 14 15 15 14 14 14 14 14 13 13 13 13 13 13 12 13 13 13 13 13 11 9 10 11 11 11 10 10 10
13 13 12 12 13 14 15 15 15 14 14 15 15 15 15 15 14 14 14 14 14 13 13 13 13 12 12 12 12 12 12 12 13 12 12 10 10 9 9 9 9 9 9
13 12 12 10 11 13 14 14 14 14 14 14 15 15 14 14 14 14 14 13 13 13 13 13 12 12 12 12 12 12 12 12 12 13 11 10 9 8 9 9 8 8 8
12 12 12 13 10 11 12 14 13 13 14 14 14 14 14 14 13 12 13 13 13 13 13 12 12 12 12 12 11 11 12 12 12 12 10 10 8 8 7 8 8 7 7
12 11 11 12 10 9 10 11 11 12 13 13 14 13 13 14 12 12 13 13 13 12 12 12 12 11 12 12 11 11 11 11 11 11 10 10 8 8 7 7 7 7 7
11 12 10 9 10 9 10 9 11 11 10 13 12 12 13 12 12 12 13 12 12 12 12 12 11 11 11 12 11 10 10 11 11 11 10 10 9 8 7 7 7 6 6
10 10 9 8 8 8 8 9 10 11 12 11 12 12 12 11 12 11 11 11 11 11 11 11 11 11 11 11 11 10 10 10 10 10 10 9 9 8 7 7 6 6 6
9 9 8 7 7 8 8 8 9 11 12 11 11 11 11 12 12 12 12 12 12 11 11 11 11 10 11 11 9 9 10 11 11 9 9 9 9 9 8 7 7 6 6
9 8 8 7 7 7 7 9 11 11 11 11 11 11 11 12 11 12 11 12 11 11 11 11 10 10 10 9 10 11 11 10 8 9 9 8 8 8 8 7 6 6 5
7 7 7 8 8 7 9 10 10 10 10 10 11 11 11 11 11 12 12 11 11 11 11 11 10 10 10 10 10 10 9 8 8 9 8 8 8 7 7 7 6 6 5
9 9 8 7 7 8 9 10 10 11 11 11 11 11 11 11 11 11 11 11 11 11 10 10 10 10 10 10 9 9 9 8 8 7 7 7 7 7 6 6 6 5 5
8 8 8 9 9 10 10 10 11 11 11 12 12 12 11 11 11 12 11 11 12 10 10 10 10 10 10 10 10 9 8 8 7 7 7 6 6 6 6 6 5 5 4
11 9 9 9 9 10 11 11 11 11 11 12 12 12 11 11 12 12 11 10 11 10 10 9 9 9 10 10 10 9 8 7 7 7 6 6 6 5 5 5 4 4 4
12 12 12 10 10 11 11 12 12 12 12 12 12 12 12 11 12 12 11 10 11 10 9 9 8 9 9 9 8 9 9 8 7 6 6 6 6 5 4 3 3 4 4
14 13 12 11 11 11 11 12 12 12 12 13 12 11 11 10 10 11 11 10 10 10 9 8 8 8 9 8 8 8 9 9 7 6 6 6 5 4 4 4 3 3 3
15 14 13 13 13 12 13 13 13 13 13 12 12 12 11 10 11 10 10 10 9 9 8 8 9 9 9 7 8 8 8 9 9 8 5 5 5 4 4 3 3 2 2
15 15 14 14 14 13 13 13 13 13 13 13 13 11 10 11 10 10 9 9 9 8 8 8 8 8 8 8 7 8 8 6 7 8 7 5 4 3 3 3 3 2 2
15 15 14 14 14 14 13 13 14 13 14 14 13 12 11 10 10 9 9 9 9 8 8 7 7 8 7 8 7 6 5 6 5 5 6 7 6 6 5 3 2 2 1
17 15 15 14 14 14 14 13 13 13 13 13 13 12 11 10 9 9 9 10 10 9 8 8 7 7 8 7 7 5 6 6 6 6 6 6 6 5 5 4 2 1 1

GFSSE_850_temp_048.txt.gz
Temp
16 17 17 17 17 17 17 17 18 17 17 17 17 17 17 16 16 16 15 15 14 15 14 15 15 15 15 15 14 14 14 13 13 13 14 14 13 13 13 13 13 12 13
14 15 17 16 17 16 17 17 17 17 17 17 17 17 16 16 16 16 16 15 14 14 14 15 14 14 14 14 14 13 13 13 13 13 13 13 13 13 13 13 13 12 12
13 15 15 15 15 16 16 16 16 16 16 17 17 17 16 16 16 15 15 14 14 14 14 14 14 14 14 14 14 13 13 13 13 12 12 11 11 12 13 12 13 13 13
16 16 15 15 15 15 15 16 16 16 16 17 17 16 16 16 15 15 15 14 14 14 14 14 14 14 14 13 13 13 13 13 13 12 11 11 11 11 11 12 12 12 13
16 17 15 15 14 15 15 16 16 16 16 16 16 16 16 15 15 15 14 14 14 14 14 14 13 13 13 13 13 13 13 13 12 12 11 11 12 12 12 12 12 12 12
17 18 17 15 14 14 15 15 15 16 16 16 16 16 15 15 15 14 14 14 14 14 14 13 13 13 13 13 13 13 13 13 12 12 13 12 12 12 12 12 12 12 12
16 15 15 16 14 14 15 15 15 15 16 16 15 15 15 15 14 14 14 14 14 14 13 13 13 13 13 13 13 13 14 13 13 12 12 12 12 11 11 11 11 11 11
14 14 14 13 14 14 14 14 15 15 15 15 15 15 15 14 14 14 14 14 14 13 13 13 13 13 13 13 13 13 13 13 12 12 11 12 11 11 11 11 10 10 10
14 13 13 13 13 13 13 14 15 15 15 15 15 15 14 14 14 14 14 14 14 13 13 13 13 12 13 13 13 12 13 13 13 12 11 11 10 10 10 9 9 9 9
13 13 13 12 12 11 12 12 13 14 15 15 14 14 14 14 14 14 14 14 13 13 13 12 12 12 12 13 12 12 12 12 12 12 12 12 11 9 9 9 9 9 8
13 13 12 12 12 13 11 12 12 13 14 13 13 14 13 13 13 14 13 13 13 13 12 12 12 12 12 12 12 12 12 12 12 12 11 11 10 9 9 8 8 8 8
13 11 11 11 11 12 13 10 11 12 12 13 13 13 13 13 13 13 13 13 12 12 12 12 12 12 12 12 11 11 12 11 11 11 11 11 10 8 7 8 8 8 7
12 11 11 11 11 11 11 9 10 11 13 12 12 13 13 13 13 13 13 12 12 12 12 12 12 11 11 12 12 12 11 11 11 11 11 10 10 9 8 8 8 7 7
11 11 10 10 9 10 9 9 10 10 12 12 11 12 12 12 13 12 12 12 12 12 12 11 11 11 12 12 12 12 12 11 11 10 11 10 11 10 9 8 7 6 6
10 10 10 8 8 8 9 8 8 11 11 11 12 11 12 13 12 12 12 12 12 12 11 11 11 11 11 11 11 11 11 11 11 10 10 10 10 9 9 7 7 6 5
9 9 8 8 7 8 7 8 8 9 10 11 12 12 12 12 12 12 12 12 12 12 11 11 11 11 10 11 11 11 11 11 11 10 9 9 8 9 8 8 6 6 6
8 8 8 7 8 7 8 8 8 9 10 11 11 11 12 12 12 12 12 12 12 11 11 11 11 10 10 10 10 11 11 11 10 10 9 8 8 7 7 7 7 6 6
8 7 7 7 8 8 8 8 9 10 12 11 10 11 11 12 12 12 12 12 11 11 11 11 11 10 10 10 10 10 9 9 9 9 9 8 7 7 7 7 6 6 6
8 9 9 9 8 7 8 8 10 11 11 12 12 12 11 12 11 12 11 11 11 11 11 10 10 10 10 10 10 10 9 9 8 8 8 8 8 7 5 6 5 5 5
10 9 9 9 9 9 9 10 11 10 11 11 11 11 11 12 12 12 11 11 12 11 10 10 10 10 10 10 10 10 10 9 9 8 8 7 6 6 7 5 4 4 4
11 10 10 10 10 9 9 10 10 11 11 11 12 12 12 12 12 12 11 10 12 11 10 10 10 9 10 10 10 10 9 9 9 8 8 7 6 6 5 6 5 4 4
11 11 10 10 10 9 10 10 11 11 11 12 12 12 12 12 12 12 11 11 12 11 10 10 10 9 9 9 10 9 9 9 8 8 8 7 6 6 5 4 4 4 4
12 12 12 11 10 10 11 11 11 12 12 12 12 12 12 12 11 11 11 11 10 11 10 10 10 9 9 9 9 9 8 9 9 9 7 7 6 5 5 5 4 3 3
13 13 12 12 12 11 12 12 13 12 13 13 13 12 12 12 12 11 11 10 10 10 9 9 9 9 8 8 8 8 8 7 7 7 7 6 6 6 5 5 4 3 3
14 14 14 13 13 13 13 12 13 13 13 13 13 13 13 12 11 10 10 10 10 9 9 9 9 8 8 8 8 7 7 6 6 6 6 6 6 5 5 4 4 3 2
16 15 14 14 14 14 14 14 13 13 13 13 13 13 13 12 12 11 11 10 9 9 9 8 8 8 7 8 7 7 6 6 6 6 6 5 6 6 5 5 4 4 3